星链-6100 (STARLINK-6100 )

导读

STARLINK-6100是美国SpaceX公司星链(Starlink)项目中的卫星,于2023年6月23日发射,星链计划旨在通过近地轨道卫星群提供全球高速互联网接入服务。该卫星入轨后,进一步扩展了星链星座的网络覆盖能力,助力其实现更稳定的全球互联网服务部署。

Basic Information
目录编号:
57125
目录名称:
STARLINK-6100
国际标识:
2023-090AA
轨道中心:
EARTH
卫星名称:
星链-6100
卫星全名:
星链-6100 (STARLINK-6100 )
卫星状态:
在轨 (已飞行1176 天)
发射日期:
2023-06-23 UTC
国别 :
美国 (US)
星等 :
--
This satellite is enrolled in the Space Conjunction Data Service (SCDS) and the current flight risk assessment level is: No High Risk
Orbit Information
数据来源 国际轨道数据 AOE轨道数据
星历时间 2026-09-11T10:49:37+0800
17小时前
查看轨道信息
2026-09-07T05:00:00+0800
4天前
查看轨道信息
半长轴 6861.195km 6861.17km
偏心率 0.0001663 0.0002004
轨道倾角 43.003° 43.002°
近地点辐角 271.861° 242.211°
升交点赤经 296.019° 319.984°
平近点角 88.205° 158.206°
近地点 481.916km 481.658km
远地点 484.2km 484.408km
周期 94.267分钟 94.266分钟
每日圈数 15.275773 15.275855
Detailed Information
固有亮度:
5
最大亮度:
2.4
卫星平台:
Starlink v1.5
覆盖范围:
全球
运营商:
太空探索技术公司
运营商所在国:
美国
制造商(研发单位):
太空探索技术公司
制造商所在国:
美国
使用方式:
暂无
Satellite Introduction
星链(Starlink)计划是由太空探索技术公司(SpaceX)提出的一个巨型低轨卫星互联网星座项目,计划在2019年至2024年间在太空搭建由约1.2万颗卫星组成的“星链”网络,其中1584颗将部署在地球上空550千米处的近地轨道,并从2020年开始工作。该卫星仍在工作。
2D Orbit Map
3D Orbit Map
Orbit Altitude Analysis Chart
Orbit Inclination Analysis Chart
Orbit Comprehensive Analysis Chart
View Comprehensive Chart
Conjunction Data List
Event ID Objects TCA Miss Dist (km) Collision Risk Probability Collision Risk Index (CRI) Action
CDM_260913-223405-712506-793321
2026-09-13T
22:34:31+0000
0.623 km
远距离
6.713018E-5 中风险 0.72
CDM_260912-052202-636605-712526
SIMSAT 2 (26366)
2026-09-12T
05:22:10+0000
2.085 km
极远距离
2.435902E-6 低风险 0.43
CDM_260913-210005-712506-793321
2026-09-13T
21:00:22+0000
2.159 km
极远距离
1.389078E-6 低风险 0.38
Miss Distance Evolution Trend with All Objects
Collision Probability Evolution Trend with All Objects